Wind_Speed
19 19 18 18 19 19 21 22 25 25 23 22 21 23 25 26 26 26 28 29 31 38 39 36 42 46 47 47 47 48 50 48 45 43 40 33 39 54 47 54 57 54 56 54 49
20 21 22 23 23 24 24 25 25 24 24 24 23 21 24 26 26 27 28 27 28 31 39 38 36 45 46 46 48 50 50 47 45 47 46 40 36 38 47 53 60 52 55 59 58
23 24 24 24 24 26 26 27 28 29 27 24 24 22 23 25 27 25 30 27 29 30 33 40 38 36 43 46 47 49 50 49 51 51 50 50 43 43 51 43 51 55 63 56 54
26 27 28 27 27 29 28 27 28 28 29 28 25 24 24 23 28 27 26 26 26 30 31 35 38 37 38 39 44 49 49 50 54 56 54 54 57 57 52 40 38 54 59 56 51
32 32 32 32 32 33 31 30 30 28 28 29 29 28 26 24 25 25 26 27 27 27 29 31 33 30 31 31 31 39 44 53 56 57 58 60 59 59 54 49 47 58 59 57 57
34 34 35 35 34 33 32 33 33 33 31 30 29 28 29 26 27 26 28 29 26 27 27 28 27 29 30 31 29 30 33 36 46 59 62 63 63 63 58 56 43 60 62 54 64
37 37 37 38 39 40 42 44 39 36 37 37 34 31 30 34 30 26 26 29 26 28 29 32 32 30 28 28 28 30 34 36 35 39 54 68 71 63 63 60 64 63 62 57 60
41 41 41 43 44 47 49 52 52 46 43 42 38 32 30 35 32 29 27 29 29 28 31 33 35 32 30 29 28 28 33 36 35 37 42 53 67 69 68 68 67 66 61 54 63
43 44 45 43 44 45 46 47 47 47 45 45 40 38 34 33 36 35 29 30 30 29 32 32 34 33 32 30 29 32 31 34 33 34 38 41 46 63 67 61 71 73 71 64 72
46 47 47 45 48 45 45 45 45 44 43 42 40 38 37 36 38 37 34 31 31 33 34 31 33 35 35 33 32 26 31 31 32 25 27 36 42 49 60 66 54 73 74 63 72
50 50 50 50 52 51 47 47 47 45 44 45 42 40 41 38 39 41 38 33 34 33 32 31 35 36 27 29 31 29 25 22 24 21 25 29 36 42 39 47 61 47 63 70 68
55 54 56 53 54 51 50 48 46 49 46 40 45 44 46 44 44 46 40 35 35 31 32 36 34 27 32 34 34 33 27 23 23 18 22 26 30 34 34 41 43 54 63 67 69
61 61 61 57 56 51 49 46 47 49 47 41 43 47 49 51 48 49 42 34 37 35 37 36 27 33 37 33 35 31 23 21 19 16 17 23 29 33 35 36 38 46 52 63 74
66 62 61 57 56 50 50 47 47 50 49 44 48 48 45 47 52 48 38 37 38 38 34 35 33 39 36 34 31 28 23 21 20 17 15 24 20 22 21 26 35 35 42 43 60
69 65 61 54 49 51 51 48 50 49 50 41 47 42 37 36 31 39 39 36 37 34 34 36 35 38 36 33 28 24 19 18 19 22 16 23 32 17 22 22 22 33 27 29 33
66 61 55 51 48 49 50 51 51 51 56 42 33 39 35 29 27 31 37 38 33 31 35 32 34 34 32 30 27 21 19 20 19 20 24 18 21 23 21 31 23 25 25 32 32
66 62 58 55 50 49 51 50 51 54 41 34 17 21 25 26 29 30 33 38 39 37 36 33 34 37 33 31 28 24 22 18 19 22 24 17 24 23 24 28 23 32 28 25 23
68 65 57 56 49 47 46 47 49 42 32 19 20 21 33 22 30 28 34 32 33 33 25 27 38 34 34 33 24 26 24 19 19 15 16 19 25 28 37 21 22 21 20 23 20
69 67 59 54 47 44 44 46 40 30 22 22 24 32 30 32 34 36 42 28 28 29 28 31 26 29 33 35 29 21 29 22 22 25 24 22 21 28 38 19 14 17 20 16 16
68 65 62 53 45 43 42 37 32 25 21 27 28 24 22 31 36 39 40 40 37 23 25 32 29 28 31 32 38 30 24 27 28 21 26 25 36 20 30 35 29 22 23 22 22
70 66 61 49 40 39 37 33 25 17 19 27 34 26 29 30 36 34 39 38 29 24 29 36 31 29 32 38 38 35 30 35 27 28 19 18 23 24 25 27 25 24 25 26 27
69 60 54 39 32 30 22 18 15 16 27 26 26 31 30 29 31 32 39 33 32 28 30 26 25 29 23 19 32 33 34 24 27 31 32 28 23 29 21 32 22 26 27 28 28
67 55 39 30 25 20 14 18 19 21 23 20 20 21 33 23 29 26 30 39 38 36 30 31 32 30 31 27 19 33 37 40 36 35 24 27 21 35 25 22 18 24 24 28 29
53 32 13 18 12 14 20 23 21 28 27 26 22 16 22 23 22 20 36 42 39 37 35 39 31 29 26 25 21 21 23 36 33 35 25 33 34 29 35 33 34 30 29 33 34
28 11 8 11 17 11 13 18 22 23 27 19 13 18 18 20 19 19 31 45 39 42 38 35 29 28 30 27 22 20 18 19 20 23 27 28 31 30 33 30 38 28 31 33 36
20 12 13 11 11 16 14 14 20 18 19 25 12 22 15 14 14 18 43 30 41 39 37 33 29 29 26 27 16 22 15 17 15 16 19 27 24 22 20 19 20 23 26 27 26
14 10 5 7 7 9 12 17 15 12 12 9 22 20 17 19 18 16 30 36 41 42 36 27 33 30 23 21 20 24 18 18 22 22 20 19 21 26 23 23 26 25 25 26 25
Wind_Direction
335 335 328 325 330 330 331 331 331 327 325 323 318 308 299 289 278 270 272 276 266 250 245 240 235 234 233 232 231 232 233 233 236 235 230 223 241 248 238 225 230 232 230 233 242
330 330 325 319 321 320 320 320 321 325 322 318 318 310 299 295 283 271 273 274 269 254 244 241 236 234 233 233 234 234 236 237 237 235 232 229 234 244 236 238 232 232 235 233 239
320 322 320 315 314 315 316 318 317 317 316 314 312 308 304 296 291 282 273 268 263 253 246 242 239 235 235 235 236 238 240 238 235 236 231 230 235 239 239 240 238 235 231 233 239
317 316 312 309 304 308 306 309 311 313 318 317 308 307 304 303 289 288 282 275 263 252 246 243 242 238 236 235 236 238 239 238 242 238 236 232 233 234 236 230 238 243 235 231 237
317 315 311 306 300 301 301 301 306 308 309 313 313 308 305 300 283 297 284 272 268 253 248 244 242 237 237 240 240 243 242 241 240 238 240 239 234 236 236 231 233 240 240 233 237
317 316 314 307 300 298 299 302 301 303 305 304 302 298 304 298 294 299 279 276 269 258 242 233 237 239 241 240 242 245 245 247 247 243 240 240 240 236 233 235 232 244 245 234 234
316 315 312 305 299 295 296 297 297 295 298 299 296 285 294 288 293 282 274 275 272 263 246 240 238 240 244 242 242 248 250 251 254 256 248 241 240 238 237 229 235 236 244 238 235
315 312 310 308 301 295 294 295 296 297 298 297 295 283 282 286 286 280 272 271 270 259 246 242 239 240 240 239 241 250 254 256 261 259 254 244 244 241 238 233 231 234 237 245 235
311 309 308 307 306 300 297 294 293 295 293 293 292 284 273 278 278 275 274 266 263 258 248 241 242 240 237 239 239 242 252 258 262 264 263 259 252 242 238 241 232 232 234 232 241
307 307 308 307 309 305 298 293 291 289 290 288 284 281 274 272 273 274 270 262 257 255 247 243 241 238 235 233 239 241 247 253 260 263 269 269 261 248 236 236 237 233 232 237 239
307 309 309 306 304 302 297 291 289 287 286 283 279 275 271 266 265 266 268 256 249 250 252 246 240 237 235 236 231 228 238 252 259 244 258 264 264 254 244 240 236 231 235 235 238
310 311 308 304 300 298 294 289 290 287 288 281 274 273 269 265 259 262 262 258 251 250 243 240 242 236 231 230 235 237 238 244 254 251 261 259 265 253 246 239 235 232 234 232 235
313 311 309 305 302 299 294 295 292 289 286 285 276 268 267 263 260 258 257 253 248 242 238 245 236 227 229 228 233 240 239 242 252 248 251 268 267 255 250 243 235 236 241 239 239
312 311 308 306 303 300 297 296 294 291 288 286 278 270 266 264 258 256 257 250 245 243 243 236 224 227 228 226 231 239 240 239 236 230 254 253 265 265 257 247 232 235 238 242 242
313 311 310 307 306 303 300 295 292 287 284 279 277 282 273 265 261 245 249 245 243 241 237 234 221 226 226 228 230 235 230 251 243 241 234 256 271 216 241 235 230 235 231 230 235
313 312 312 308 307 301 296 291 286 281 278 282 280 275 272 260 248 252 240 233 228 234 233 228 223 224 226 225 225 225 216 226 245 251 252 244 263 274 261 203 225 229 212 215 225
316 315 312 308 302 297 291 286 283 279 285 290 277 268 266 246 230 221 236 226 224 222 226 221 222 222 219 217 216 214 212 227 235 239 252 240 257 262 263 226 197 201 215 203 205
315 312 310 307 299 294 286 281 279 294 286 258 243 208 258 205 222 221 230 228 220 222 215 229 217 220 217 218 209 218 217 208 224 238 252 247 216 243 259 265 188 193 213 205 207
316 313 308 303 295 287 281 280 289 286 259 210 235 239 236 253 219 213 210 224 221 217 213 208 219 225 216 216 188 218 210 198 234 215 229 211 232 228 246 278 250 241 227 224 228
316 311 306 299 291 285 280 283 284 270 254 223 231 225 241 228 242 206 209 220 214 216 213 221 207 207 220 216 209 199 193 212 220 246 212 229 207 226 248 259 254 240 232 236 237
314 309 307 302 292 281 278 281 274 259 254 227 217 249 222 241 240 232 196 213 203 209 220 215 197 204 216 224 208 204 217 202 205 223 241 250 247 216 202 244 246 241 233 238 240
311 310 305 302 287 277 274 272 272 260 218 234 224 212 235 231 239 234 217 183 181 209 217 204 207 208 216 230 207 202 211 225 203 220 217 214 240 253 210 227 238 252 243 241 246
313 312 297 288 278 265 243 252 236 244 229 229 229 232 225 241 242 224 218 182 183 189 204 187 201 207 215 213 223 218 212 210 219 215 232 220 231 242 247 265 252 253 250 246 242
321 316 296 284 275 277 253 233 238 238 232 235 225 240 238 229 232 227 213 185 189 192 198 188 204 205 205 220 224 218 217 222 220 216 219 227 215 227 241 254 252 251 251 248 245
328 308 271 264 232 252 242 234 227 234 232 216 242 230 232 232 249 252 198 197 186 188 194 191 190 197 204 208 203 197 207 213 216 228 237 232 251 254 233 246 248 253 250 254 249
324 299 250 254 230 233 232 222 227 232 239 220 232 213 227 229 242 212 186 193 185 189 195 195 201 208 217 216 218 197 197 212 214 211 227 214 230 237 243 251 247 250 253 254 251
323 317 234 212 206 209 214 222 226 244 192 202 229 232 224 209 232 197 187 198 194 196 190 183 209 211 213 209 216 221 210 227 221 219 222 225 222 237 234 245 246 248 251 257 266
Height
5825 5822 5819 5817 5814 5812 5809 5806 5803 5800 5797 5794 5791 5789 5786 5783 5782 5781 5779 5781 5779 5779 5782 5785 5789 5792 5796 5801 5804 5807 5811 5814 5822 5829 5837 5842 5840 5836 5847 5847 5849 5852 5857 5861 5843
5823 5820 5817 5814 5811 5808 5804 5801 5798 5795 5792 5789 5786 5783 5780 5778 5775 5774 5774 5772 5772 5772 5773 5776 5779 5783 5787 5792 5796 5798 5802 5810 5816 5819 5823 5830 5834 5833 5837 5838 5841 5848 5851 5855 5853
5819 5817 5813 5810 5806 5803 5800 5797 5794 5790 5787 5784 5780 5777 5774 5771 5769 5768 5765 5764 5764 5765 5766 5769 5772 5775 5780 5784 5788 5791 5796 5802 5803 5806 5812 5818 5821 5824 5828 5829 5835 5840 5835 5846 5848
5814 5812 5808 5805 5801 5797 5794 5790 5787 5784 5780 5777 5774 5771 5767 5765 5764 5761 5759 5757 5756 5758 5759 5761 5764 5768 5771 5775 5778 5781 5787 5791 5793 5796 5801 5807 5810 5812 5818 5828 5832 5826 5832 5842 5845
5809 5805 5802 5798 5795 5791 5787 5784 5780 5776 5773 5771 5767 5764 5761 5759 5756 5755 5753 5750 5750 5751 5752 5755 5758 5760 5763 5766 5769 5773 5777 5778 5781 5786 5790 5793 5799 5804 5810 5817 5819 5816 5823 5834 5834
5803 5799 5796 5792 5788 5784 5781 5777 5773 5769 5766 5764 5761 5757 5754 5751 5747 5745 5745 5743 5744 5745 5746 5748 5752 5754 5756 5758 5763 5765 5766 5767 5770 5774 5778 5782 5786 5789 5800 5808 5810 5806 5811 5823 5825
5796 5792 5788 5784 5780 5776 5773 5768 5764 5761 5757 5754 5751 5748 5747 5742 5741 5737 5737 5736 5737 5737 5739 5741 5744 5747 5750 5751 5754 5756 5757 5758 5761 5762 5767 5769 5768 5782 5790 5797 5797 5797 5800 5811 5815
5787 5783 5779 5775 5770 5766 5762 5757 5753 5749 5746 5742 5739 5736 5737 5732 5731 5730 5728 5729 5728 5729 5730 5732 5735 5739 5742 5744 5745 5747 5747 5749 5751 5752 5753 5752 5764 5771 5776 5780 5784 5786 5790 5796 5799
5778 5774 5769 5764 5758 5754 5750 5745 5740 5738 5734 5730 5728 5725 5725 5723 5720 5719 5720 5720 5720 5720 5722 5724 5727 5730 5733 5736 5737 5738 5740 5741 5742 5741 5741 5746 5754 5757 5761 5762 5768 5774 5779 5786 5786
5765 5760 5756 5751 5746 5742 5736 5732 5728 5725 5722 5718 5715 5714 5711 5712 5709 5709 5709 5710 5711 5711 5712 5716 5718 5721 5724 5727 5730 5732 5732 5733 5734 5735 5733 5736 5740 5740 5745 5747 5754 5763 5770 5772 5776
5753 5747 5742 5737 5731 5727 5722 5716 5714 5710 5707 5704 5702 5699 5697 5698 5698 5696 5697 5699 5699 5701 5704 5707 5708 5711 5719 5721 5722 5723 5724 5727 5727 5729 5728 5727 5727 5729 5733 5734 5742 5753 5759 5762 5766
5743 5736 5729 5722 5716 5710 5706 5700 5696 5692 5690 5690 5687 5685 5683 5684 5684 5685 5686 5689 5691 5692 5695 5696 5698 5708 5708 5710 5713 5715 5716 5719 5721 5722 5722 5721 5720 5722 5723 5726 5731 5739 5743 5751 5755
5731 5724 5717 5710 5702 5697 5689 5686 5681 5675 5673 5673 5671 5670 5669 5667 5672 5671 5675 5679 5681 5681 5683 5687 5695 5696 5697 5701 5705 5709 5711 5712 5715 5718 5716 5718 5716 5717 5716 5716 5722 5727 5731 5739 5746
5713 5706 5698 5692 5685 5681 5675 5669 5664 5658 5655 5658 5651 5651 5652 5654 5654 5658 5667 5668 5669 5672 5675 5679 5685 5685 5690 5695 5699 5702 5705 5706 5708 5711 5715 5712 5713 5712 5710 5712 5714 5722 5727 5731 5736
5693 5686 5679 5673 5669 5663 5660 5654 5647 5641 5638 5639 5632 5635 5636 5639 5643 5645 5651 5655 5658 5664 5667 5670 5676 5677 5682 5689 5693 5698 5700 5703 5703 5706 5708 5709 5705 5705 5707 5710 5714 5718 5720 5724 5728
5674 5667 5662 5656 5652 5647 5640 5636 5631 5627 5616 5626 5622 5622 5623 5627 5630 5633 5637 5643 5650 5655 5657 5664 5668 5671 5677 5683 5687 5692 5696 5700 5702 5705 5704 5705 5704 5698 5699 5701 5712 5715 5718 5718 5721
5657 5650 5644 5639 5635 5629 5623 5617 5615 5607 5614 5615 5614 5613 5615 5614 5621 5626 5627 5632 5637 5643 5648 5656 5660 5664 5670 5675 5681 5684 5691 5696 5699 5700 5701 5704 5700 5702 5694 5700 5701 5704 5712 5715 5716
5642 5632 5624 5621 5615 5609 5605 5601 5596 5601 5598 5603 5607 5607 5604 5604 5613 5618 5621 5625 5631 5638 5645 5648 5652 5658 5663 5670 5678 5682 5687 5692 5695 5698 5699 5700 5700 5701 5692 5686 5696 5703 5708 5710 5712
5625 5617 5608 5601 5595 5591 5589 5584 5587 5586 5587 5592 5597 5597 5601 5600 5603 5604 5607 5619 5625 5631 5638 5645 5651 5655 5657 5664 5673 5678 5679 5688 5689 5691 5691 5695 5698 5696 5691 5689 5697 5701 5705 5706 5708
5607 5599 5591 5581 5578 5575 5574 5574 5573 5574 5577 5579 5582 5588 5590 5595 5593 5595 5602 5610 5617 5624 5633 5639 5645 5648 5652 5657 5663 5669 5676 5682 5683 5684 5685 5686 5687 5694 5691 5690 5693 5697 5701 5703 5705
5585 5575 5569 5565 5561 5559 5559 5560 5561 5566 5568 5570 5572 5579 5580 5584 5584 5589 5592 5604 5612 5621 5627 5631 5638 5643 5646 5647 5656 5664 5665 5670 5678 5682 5681 5681 5685 5682 5683 5685 5689 5692 5696 5699 5701
5565 5558 5545 5551 5548 5547 5549 5552 5553 5557 5558 5559 5563 5568 5570 5574 5578 5580 5586 5591 5601 5617 5620 5626 5632 5637 5642 5645 5650 5658 5662 5664 5670 5674 5676 5680 5683 5678 5674 5678 5681 5686 5689 5692 5695
5544 5539 5533 5534 5536 5538 5542 5546 5549 5551 5552 5555 5558 5561 5563 5565 5570 5574 5579 5584 5595 5606 5614 5621 5627 5631 5635 5638 5643 5648 5655 5658 5659 5665 5668 5672 5676 5676 5670 5673 5677 5680 5684 5686 5687
5522 5521 5522 5530 5530 5533 5534 5538 5542 5544 5546 5549 5553 5557 5559 5562 5566 5571 5576 5583 5591 5601 5610 5617 5622 5626 5633 5636 5640 5643 5647 5652 5657 5661 5665 5667 5668 5667 5671 5671 5672 5676 5679 5679 5681
5517 5516 5517 5520 5520 5522 5528 5532 5536 5538 5540 5545 5549 5551 5554 5558 5561 5565 5569 5578 5585 5593 5603 5611 5617 5623 5626 5629 5635 5637 5642 5646 5650 5656 5657 5662 5661 5661 5667 5667 5670 5669 5673 5671 5673
5513 5511 5511 5512 5515 5518 5523 5529 5532 5535 5536 5539 5542 5546 5550 5553 5557 5561 5566 5573 5581 5592 5600 5607 5613 5618 5622 5627 5632 5632 5638 5642 5647 5652 5654 5655 5657 5658 5662 5663 5664 5665 5665 5665 5665
5510 5508 5506 5510 5512 5517 5521 5525 5528 5530 5534 5536 5537 5541 5545 5550 5553 5557 5565 5571 5578 5587 5596 5595 5606 5614 5619 5623 5629 5633 5635 5639 5642 5645 5648 5652 5654 5654 5658 5659 5660 5661 5661 5661 5661